TimeEDT,TemperatureF,Dew PointF,Humidity,Sea Level PressureIn,VisibilityMPH,Wind Direction,Wind SpeedMPH,Gust SpeedMPH,PrecipitationIn,Events,Conditions,WindDirDegrees,DateUTC
12:53 AM,57.0,53.1,87,30.27,10.0,Calm,Calm,-,N/A,,Mostly Cloudy,0,2012-03-21 04:53:00
1:53 AM,57.0,54.0,89,30.26,10.0,Calm,Calm,-,N/A,,Scattered Clouds,0,2012-03-21 05:53:00
2:45 AM,53.6,53.6,100,30.27,1.8,Calm,Calm,-,N/A,,Clear,0,2012-03-21 06:45:00
2:53 AM,55.0,53.1,93,30.27,1.8,Calm,Calm,-,N/A,,Clear,0,2012-03-21 06:53:00
3:07 AM,55.4,53.6,94,30.27,4.0,Calm,Calm,-,N/A,,Clear,0,2012-03-21 07:07:00
3:53 AM,55.0,52.0,89,30.26,6.0,Calm,Calm,-,N/A,,Clear,0,2012-03-21 07:53:00
4:22 AM,53.6,51.8,94,30.27,1.5,Calm,Calm,-,N/A,,Clear,0,2012-03-21 08:22:00
4:34 AM,53.6,53.6,100,30.27,3.0,Calm,Calm,-,N/A,,Scattered Clouds,0,2012-03-21 08:34:00
4:53 AM,54.0,53.1,97,30.26,2.0,Calm,Calm,-,N/A,,Scattered Clouds,0,2012-03-21 08:53:00
5:02 AM,53.6,51.8,94,30.26,1.2,Calm,Calm,-,N/A,,Partly Cloudy,0,2012-03-21 09:02:00
5:12 AM,55.4,53.6,94,30.27,3.0,Calm,Calm,-,N/A,,Clear,0,2012-03-21 09:12:00
5:32 AM,53.6,53.6,100,30.26,2.0,Calm,Calm,-,N/A,,Clear,0,2012-03-21 09:32:00
5:48 AM,53.6,51.8,94,30.27,1.5,Calm,Calm,-,N/A,,Partly Cloudy,0,2012-03-21 09:48:00
5:53 AM,54.0,52.0,93,30.26,2.0,Calm,Calm,-,N/A,,Scattered Clouds,0,2012-03-21 09:53:00
6:05 AM,53.6,53.6,100,30.27,3.0,NNE,3.5,-,N/A,,Mostly Cloudy,20,2012-03-21 10:05:00
6:50 AM,55.4,53.6,94,30.28,2.5,North,4.6,-,N/A,,Partly Cloudy,10,2012-03-21 10:50:00
6:53 AM,55.0,53.1,93,30.27,2.5,NNE,4.6,-,N/A,,Partly Cloudy,20,2012-03-21 10:53:00
7:02 AM,55.4,53.6,94,30.28,2.5,NW,3.5,-,N/A,,Scattered Clouds,310,2012-03-21 11:02:00
7:08 AM,53.6,53.6,100,30.28,3.0,North,3.5,-,N/A,,Mostly Cloudy,360,2012-03-21 11:08:00
7:24 AM,55.4,53.6,94,30.29,1.8,Calm,Calm,-,N/A,,Overcast,0,2012-03-21 11:24:00
7:53 AM,55.9,54.0,93,30.29,0.5,NNE,4.6,-,N/A,Fog,Fog,20,2012-03-21 11:53:00
7:57 AM,55.4,55.4,100,30.29,0.2,North,3.5,-,N/A,Fog,Fog,10,2012-03-21 11:57:00
8:53 AM,57.0,55.9,96,30.31,0.2,Calm,Calm,-,N/A,Fog,Fog,0,2012-03-21 12:53:00
9:26 AM,57.2,55.4,94,30.32,0.2,Calm,Calm,-,0.01,Fog,Fog,0,2012-03-21 13:26:00
9:37 AM,57.2,57.2,100,30.33,0.8,Calm,Calm,-,0.01,,Mist,0,2012-03-21 13:37:00
9:51 AM,57.2,57.2,100,30.33,1.0,Calm,Calm,-,0.01,,Overcast,0,2012-03-21 13:51:00
9:53 AM,57.9,57.0,97,30.33,1.0,Calm,Calm,-,0.01,,Overcast,0,2012-03-21 13:53:00
10:10 AM,57.2,57.2,100,30.33,2.5,East,3.5,-,N/A,,Overcast,100,2012-03-21 14:10:00
10:18 AM,59.0,57.2,94,30.33,3.0,Calm,Calm,-,N/A,,Overcast,0,2012-03-21 14:18:00
10:53 AM,59.0,57.0,93,30.33,6.0,Variable,5.8,-,N/A,,Overcast,0,2012-03-21 14:53:00
11:53 AM,61.0,57.0,87,30.34,8.0,SE,8.1,-,N/A,,Overcast,140,2012-03-21 15:53:00
12:21 PM,62.6,57.2,82,30.34,8.0,East,3.5,-,N/A,,Overcast,100,2012-03-21 16:21:00
12:28 PM,62.6,55.4,77,30.34,9.0,ESE,5.8,-,N/A,,Overcast,110,2012-03-21 16:28:00
12:43 PM,64.4,57.2,77,30.34,9.0,East,5.8,-,N/A,,Overcast,80,2012-03-21 16:43:00
12:53 PM,63.0,57.0,81,30.33,8.0,NE,3.5,-,N/A,,Overcast,40,2012-03-21 16:53:00
1:37 PM,64.4,55.4,73,30.32,10.0,Calm,Calm,-,N/A,,Overcast,0,2012-03-21 17:37:00
1:53 PM,64.0,55.9,75,30.32,10.0,ESE,3.5,-,N/A,,Overcast,110,2012-03-21 17:53:00
2:53 PM,66.0,55.9,70,30.28,10.0,NE,4.6,-,N/A,,Overcast,50,2012-03-21 18:53:00
3:53 PM,66.0,57.0,73,30.27,10.0,East,4.6,-,N/A,,Overcast,80,2012-03-21 19:53:00
4:53 PM,64.9,57.0,75,30.25,10.0,East,4.6,-,N/A,,Overcast,90,2012-03-21 20:53:00
5:53 PM,64.0,57.0,78,30.25,10.0,East,4.6,-,N/A,,Overcast,100,2012-03-21 21:53:00
6:53 PM,64.0,57.0,78,30.25,10.0,East,3.5,-,N/A,,Overcast,100,2012-03-21 22:53:00
7:53 PM,63.0,57.0,81,30.27,9.0,Calm,Calm,-,N/A,,Overcast,0,2012-03-21 23:53:00
8:53 PM,63.0,57.0,81,30.27,9.0,Calm,Calm,-,N/A,,Overcast,0,2012-03-22 00:53:00
9:53 PM,61.0,57.0,87,30.29,8.0,Calm,Calm,-,N/A,,Overcast,0,2012-03-22 01:53:00
10:53 PM,62.1,57.0,84,30.29,8.0,Calm,Calm,-,N/A,,Overcast,0,2012-03-22 02:53:00
11:53 PM,62.1,57.0,84,30.27,8.0,Calm,Calm,-,N/A,,Overcast,0,2012-03-22 03:53:00